Back to catalog

STARLINK-2388

AliveCommunicationsVLEO
NORAD 47807·PAYLOAD·🇺🇸 United States

Launched Mar 11, 2021 from Cape Canaveral Space Force Station

Loading…

Next Passes (next 24 hours)

TLE

FreshSource: CelesTrak SupGP

Epoch: Sep 14, 2026, 21:56 UTC

1 47807C 21018W   26257.91437500  .00050289  00000+0  16179-2 0  2575
2 47807  53.1597  56.0890 0001393  61.9661  27.6070 15.31662361    18

Track STARLINK-2388 in real time with AllMySat

Download on the App Store